This is the latest recevied weather packets stored in our database for station/object IW5CI-13. If no packets are shown the sender has not sent any weather packets the latest 10 day(s).
| Time | Temp. | Humidity | Pressure | Rain* | Wind** | Luminosity | Snow |
|---|---|---|---|---|---|---|---|
| 1777664794 | 13.89° C | 15% | 1025.2 hPa | - | - | - | - |
| 1777663590 | 13.89° C | 15% | 1025 hPa | - | - | - | - |
| 1777663280 | 13.89° C | 15% | 1024.9 hPa | - | - | - | - |
| 1777662077 | 14.44° C | 15% | 1024.8 hPa | - | - | - | - |
| 1777660874 | 14.44° C | 14% | 1024.5 hPa | - | - | - | - |
| 1777659670 | 13.89° C | 14% | 1024.3 hPa | - | - | - | - |
| 1777658466 | 15° C | 13% | 1024.3 hPa | - | - | - | - |
| 1777657263 | 15.56° C | 12% | 1024.2 hPa | - | - | - | - |
| 1777656060 | 15.56° C | 12% | 1024.2 hPa | - | - | - | - |
| 1777654856 | 15.56° C | 12% | 1023.9 hPa | - | - | - | - |
| 1777653653 | 15.56° C | 11% | 1024 hPa | - | - | - | - |
| 1777652449 | 16.11° C | 11% | 1024 hPa | - | - | - | - |
| 1777650042 | 14.44° C | 13% | 1024.1 hPa | - | - | - | - |
| 1777648839 | 15.56° C | 14% | 1024 hPa | - | - | - | - |
| 1777647635 | 15.56° C | 14% | 1024.1 hPa | - | - | - | - |
| 1777646432 | 16.11° C | 13% | 1024.3 hPa | - | - | - | - |
| 1777645229 | 16.11° C | 13% | 1024.3 hPa | - | - | - | - |
| 1777642822 | 16.11° C | 15% | 1024.1 hPa | - | - | - | - |
| 1777641618 | 16.11° C | 16% | 1024.4 hPa | - | - | - | - |
| 1777640415 | 16.67° C | 17% | 1024.4 hPa | - | - | - | - |
| 1777639211 | 16.67° C | 16% | 1024.4 hPa | - | - | - | - |
| 1777638008 | 15.56° C | 16% | 1024.7 hPa | - | - | - | - |
| 1777635601 | 14.44° C | 15% | 1024.8 hPa | - | - | - | - |
| 1777634397 | 15° C | 14% | 1025 hPa | - | - | - | - |
| 1777633194 | 15° C | 13% | 1025.1 hPa | - | - | - | - |
* Rain since midnight (hover to see other rain measurements)
** Current wind speed in m/s (hover to see current wind gust speed)